SL-12 R/B(2), 29673

Orbit data source: Space-Track

SL-12 R/B(2), 29673 is space debris in MEO originally from a launch on Mon, 25 Dec 2006 UTC launched from the Tyuratam Missile And Space Complex (TTMTR). Debris objects in space refer to the collection of defunct objects orbiting the Earth. Examples of debris include non-operational satellites, rocket bodies, and fragments generated from explosions, collisions, or faulty payload assembly.

Loading next visibility...
Identifier
29673, 2006-062D
Orbit
MEO
Country
Flag of CISCIS
Related business
Manufacturer
RKKE
Mission
Spacecraft
Bus & Motor
BLOK DM2, 11D58M
Mass
2,440 kg wet, 2,440 kg dry
Launch date (UTC)
2006-12-25 (19 years ago)
Launch vehicle
Unknown
Launch site
Tyuratam Missile And Space Complex (TTMTR)
Object type
Payload
Rocket body
Debris
Shape & HBR
Cyl, 3.1 m
Radar Cross Section
23.684 m², Large (>1 m²)

Expand to show TLE details & history
Last TLE update: 6 days ago

TLE from 6 days ago
0 SL-12 R/B(2)
1 29673U 06062D   25344.18463272  .00000043  00000-0  00000-0 0  9999
2 29673  64.7011 199.9233 0027342 191.7131 344.8407  2.13404283147958
Epoch: 2025-12-10T04:25Z
TLE epoch observation values (Epoch: 2025-12-10T04:25:52.267Z)
Latitude
3.20514°
Longitude
-127.21465°
Altitude
19,038.755 km
Speed
3.965 km/s
True Right ascension
01h 13m 38s
True Declination
3° 11' 59"
Sunlit
Object was in daylight at epoch
Visualization orbit readout
Latitude
Unknown
Longitude
Unknown
Altitude
Unknown
Speed
Unknown
Apparent Right ascension
Unknown
Apparent Declination
Unknown
Sunlit
N/A
Visualization observer readout
Local Sidereal Time
00:00:18
Azimuth
Unknown
Elevation
Unknown
Doppler factor
Unknown
Orbital elements
Apogee altitude
19,175.096 km
Perigee altitude
19,035.742 km
Semi-major axis
25,483.556 km
Eccentricity
0.00273
Inclination
64.7011°
RAAN
199.9233°
Arg. of periapsis
191.7131°
True anomaly
344.7585°
Mean anomaly
344.8407°
Eccentric anomaly
344.79962°
Mean motion
0.53352 °/min
Orbital period
674.76 mins
BSTAR
0
Loading maneuver chart data...
Computing Atmospheric mass density...
Loading historical data...
Loading historical data...
Loading historical data...
Loading historical data...
Loading historical data...
Loading historical data...
Loading historical data...

Documentation

Showing up to 5 results
|